• In Hungary
  • List of Countries
  • For 7 days
  • Water Temperature
  • Satellite Maps
  • Weather Map
  • News
  • Weather Widgets
  • user-avatar
    Login

    Hourly Weather Tubize

    Today, 19 October, Thursday

    Time Temperature Precipitation Wind Pressure Humidity
    00:00 +15°C° 0 mm 2 mps 754 mmHg 88%
    01:00 +14°C° 0 mm 2 mps 754 mmHg 88%
    02:00 +14°C° 0 mm 2 mps 753 mmHg 88%
    03:00 +14°C° 0 mm 2 mps 753 mmHg 88%
    04:00 +14°C° 0 mm 2 mps 753 mmHg 89%
    05:00 +13°C° 0 mm 3 mps 753 mmHg 89%
    06:00 +12°C° 0 mm 3 mps 753 mmHg 87%
    07:00 +14°C° 0 mm 4 mps 753 mmHg 82%
    08:00 +15°C° 0 mm 4 mps 753 mmHg 77%
    09:00 +16°C° 0 mm 5 mps 753 mmHg 72%
    10:00 +19°C° 0 mm 5 mps 752 mmHg 68%
    11:00 +20°C° 0 mm 6 mps 752 mmHg 65%
    12:00 +22°C° 0 mm 6 mps 752 mmHg 62%
    13:00 +22°C° 0 mm 6 mps 751 mmHg 63%
    14:00 +22°C° 0 mm 6 mps 751 mmHg 65%
    15:00 +22°C° 0 mm 5 mps 751 mmHg 66%
    16:00 +20°C° 0 mm 5 mps 751 mmHg 70%
    17:00 +19°C° 0 mm 5 mps 751 mmHg 73%
    18:00 +18°C° 0 mm 4 mps 751 mmHg 77%
    19:00 +18°C° 0 mm 4 mps 751 mmHg 77%
    20:00 +16°C° 0 mm 5 mps 751 mmHg 77%
    21:00 +16°C° 0 mm 5 mps 751 mmHg 77%
    22:00 +16°C° 0 mm 5 mps 751 mmHg 77%
    23:00 +16°C° 0 mm 5 mps 751 mmHg 77%

    Tomorrow, 20 October, Friday

    Time Temperature Precipitation Wind Pressure Humidity
    00:00 +15°C° 0 mm 6 mps 751 mmHg 77%
    01:00 +15°C° 0.2 mm 6 mps 751 mmHg 79%
    02:00 +15°C° 0.2 mm 6 mps 751 mmHg 80%
    03:00 +15°C° 0.2 mm 6 mps 751 mmHg 82%
    04:00 +14°C° 0.7 mm 6 mps 751 mmHg 83%
    05:00 +14°C° 0.7 mm 6 mps 752 mmHg 85%
    06:00 +13°C° 0.7 mm 6 mps 752 mmHg 86%
    07:00 +13°C° 0.1 mm 6 mps 753 mmHg 83%
    08:00 +14°C° 0.1 mm 6 mps 753 mmHg 79%
    09:00 +14°C° 0.1 mm 6 mps 754 mmHg 75%
    10:00 +14°C° 0 mm 7 mps 754 mmHg 71%
    11:00 +15°C° 0 mm 7 mps 754 mmHg 67%
    12:00 +16°C° 0 mm 7 mps 755 mmHg 62%
    13:00 +15°C° 0 mm 6 mps 755 mmHg 63%
    14:00 +15°C° 0 mm 6 mps 755 mmHg 63%
    15:00 +15°C° 0 mm 5 mps 755 mmHg 64%
    16:00 +14°C° 0 mm 4 mps 755 mmHg 67%
    17:00 +13°C° 0 mm 4 mps 756 mmHg 69%
    18:00 +13°C° 0 mm 3 mps 756 mmHg 72%
    19:00 +13°C° 0 mm 4 mps 756 mmHg 70%
    20:00 +13°C° 0 mm 4 mps 756 mmHg 68%
    21:00 +13°C° 0 mm 4 mps 755 mmHg 66%
    22:00 +13°C° 0 mm 5 mps 755 mmHg 67%
    23:00 +12°C° 0 mm 5 mps 755 mmHg 69%

    Day after tomorrow, 21 October, Saturday

    Time Temperature Precipitation Wind Pressure Humidity
    00:00 +12°C° 0 mm 5 mps 754 mmHg 70%
    01:00 +13°C° 0 mm 6 mps 754 mmHg 75%
    02:00 +13°C° 0 mm 6 mps 753 mmHg 79%
    03:00 +12°C° 0 mm 7 mps 753 mmHg 84%
    04:00 +12°C° 0.4 mm 7 mps 753 mmHg 85%
    05:00 +14°C° 0.4 mm 7 mps 752 mmHg 85%
    06:00 +14°C° 0.4 mm 7 mps 752 mmHg 86%
    07:00 +14°C° 0.1 mm 7 mps 753 mmHg 85%
    08:00 +15°C° 0.1 mm 6 mps 753 mmHg 85%
    09:00 +15°C° 0.1 mm 6 mps 753 mmHg 84%
    10:00 +15°C° 0 mm 7 mps 753 mmHg 78%
    11:00 +16°C° 0 mm 8 mps 753 mmHg 71%
    12:00 +16°C° 0 mm 8 mps 753 mmHg 65%
    13:00 +16°C° 0 mm 8 mps 753 mmHg 63%
    14:00 +16°C° 0 mm 7 mps 753 mmHg 61%
    15:00 +16°C° 0 mm 7 mps 753 mmHg 59%
    16:00 +14°C° 0 mm 7 mps 753 mmHg 61%
    17:00 +13°C° 0 mm 6 mps 753 mmHg 63%
    18:00 +11°C° 0 mm 6 mps 753 mmHg 64%
    19:00 +11°C° 0 mm 6 mps 753 mmHg 64%
    20:00 +11°C° 0 mm 7 mps 753 mmHg 65%
    21:00 +11°C° 0 mm 8 mps 754 mmHg 65%
    22:00 +10°C° 0 mm 8 mps 754 mmHg 66%
    23:00 +10°C° 0 mm 8 mps 754 mmHg 68%

    22 October, Sunday

    Time Temperature Precipitation Wind Pressure Humidity
    00:00 +10°C° 0 mm 8 mps 754 mmHg 69%
    01:00 +10°C° 0.1 mm 8 mps 754 mmHg 71%
    02:00 +9°C° 0.1 mm 8 mps 754 mmHg 72%
    03:00 +9°C° 0.1 mm 8 mps 754 mmHg 73%
    04:00 +9°C° 0 mm 8 mps 754 mmHg 74%
    05:00 +9°C° 0 mm 8 mps 754 mmHg 74%
    06:00 +7°C° 0 mm 8 mps 754 mmHg 74%
    07:00 +9°C° 0.1 mm 8 mps 754 mmHg 75%
    08:00 +9°C° 0.1 mm 8 mps 755 mmHg 76%
    09:00 +9°C° 0.1 mm 8 mps 755 mmHg 77%
    10:00 +10°C° 0.3 mm 8 mps 755 mmHg 77%
    11:00 +10°C° 0.3 mm 8 mps 755 mmHg 76%
    12:00 +10°C° 0.3 mm 8 mps 755 mmHg 76%
    13:00 +10°C° 0.4 mm 7 mps 756 mmHg 76%
    14:00 +10°C° 0.4 mm 6 mps 756 mmHg 77%
    15:00 +10°C° 0.4 mm 6 mps 756 mmHg 77%
    16:00 +10°C° 0.1 mm 6 mps 756 mmHg 79%
    17:00 +9°C° 0.1 mm 5 mps 757 mmHg 81%
    18:00 +9°C° 0.1 mm 5 mps 757 mmHg 82%
    19:00 +9°C° 0.2 mm 5 mps 758 mmHg 83%
    20:00 +10°C° 0.2 mm 4 mps 758 mmHg 83%
    21:00 +8°C° 0.2 mm 4 mps 759 mmHg 83%
    22:00 +10°C° 0.1 mm 4 mps 759 mmHg 83%
    23:00 +10°C° 0.1 mm 4 mps 759 mmHg 83%

    23 October, Monday

    Time Temperature Precipitation Wind Pressure Humidity
    00:00 +10°C° 0.1 mm 4 mps 759 mmHg 83%
    01:00 +8°C° 0 mm 4 mps 760 mmHg 85%
    02:00 +8°C° 0 mm 4 mps 760 mmHg 87%
    03:00 +7°C° 0 mm 4 mps 761 mmHg 89%
    04:00 +8°C° 0 mm 4 mps 761 mmHg 89%
    05:00 +8°C° 0 mm 4 mps 761 mmHg 89%
    06:00 +8°C° 0 mm 4 mps 761 mmHg 89%
    07:00 +10°C° 0.3 mm 4 mps 761 mmHg 90%
    08:00 +10°C° 0.3 mm 4 mps 762 mmHg 91%
    09:00 +10°C° 0.3 mm 5 mps 762 mmHg 92%
    10:00 +10°C° 0.8 mm 5 mps 762 mmHg 91%
    11:00 +12°C° 0.8 mm 5 mps 762 mmHg 91%
    12:00 +11°C° 0.8 mm 6 mps 762 mmHg 91%
    13:00 +11°C° 0.3 mm 6 mps 762 mmHg 90%
    14:00 +12°C° 0.3 mm 5 mps 762 mmHg 90%
    15:00 +13°C° 0.3 mm 5 mps 762 mmHg 90%
    16:00 +13°C° 0.2 mm 5 mps 762 mmHg 91%
    17:00 +13°C° 0.2 mm 5 mps 762 mmHg 91%
    18:00 +13°C° 0.2 mm 5 mps 762 mmHg 92%
    19:00 +13°C° 0.3 mm 5 mps 763 mmHg 92%
    20:00 +13°C° 0.3 mm 5 mps 763 mmHg 93%
    21:00 +13°C° 0.3 mm 5 mps 763 mmHg 93%
    22:00 +13°C° 0.2 mm 5 mps 763 mmHg 93%
    23:00 +13°C° 0.2 mm 5 mps 763 mmHg 93%

    24 October, Tuesday

    Time Temperature Precipitation Wind Pressure Humidity
    00:00 +13°C° 0.2 mm 5 mps 763 mmHg 93%
    01:00 +13°C° 0.2 mm 4 mps 763 mmHg 93%
    02:00 +13°C° 0.2 mm 4 mps 763 mmHg 93%
    03:00 +13°C° 0.2 mm 4 mps 763 mmHg 93%
    04:00 +13°C° 0.1 mm 4 mps 763 mmHg 93%
    05:00 +13°C° 0.1 mm 4 mps 763 mmHg 93%
    06:00 +12°C° 0.1 mm 4 mps 764 mmHg 93%
    07:00 +13°C° 0 mm 4 mps 764 mmHg 91%
    08:00 +13°C° 0 mm 4 mps 764 mmHg 89%
    09:00 +13°C° 0 mm 4 mps 764 mmHg 87%
    10:00 +14°C° 0 mm 4 mps 764 mmHg 83%
    11:00 +15°C° 0 mm 4 mps 764 mmHg 79%
    12:00 +17°C° 0 mm 4 mps 764 mmHg 75%
    13:00 +17°C° 0 mm 4 mps 764 mmHg 75%
    14:00 +18°C° 0 mm 3 mps 764 mmHg 75%
    15:00 +18°C° 0 mm 3 mps 764 mmHg 74%
    16:00 +16°C° 0 mm 3 mps 764 mmHg 79%
    17:00 +14°C° 0 mm 3 mps 764 mmHg 84%
    18:00 +13°C° 0 mm 3 mps 764 mmHg 89%
    19:00 +12°C° 0 mm 3 mps 764 mmHg 90%
    20:00 +12°C° 0 mm 3 mps 764 mmHg 91%
    21:00 +12°C° 0 mm 3 mps 765 mmHg 91%
    22:00 +11°C° 0 mm 3 mps 765 mmHg 92%
    23:00 +11°C° 0 mm 3 mps 765 mmHg 92%
    Show more